If you wish to contribute or participate in the discussions about articles you are invited to join SKYbrary as a registered user

 Actions

Sabadell Airport

From SKYbrary Wiki

LELL
Airport
ICAO: LELL – IATA: QSA
Summary
Name Sabadell Airport
Region Europe
Territory Spain ES.gif
Location Sabadell, Catalonia
Serving Sabadell
Elevation 147.828 m
485 ft
485 ft147.828 m
Coordinates 41° 31' 10.36" N, 2° 6' 15.73" E
Runways
Designator Length Width Surface ROPS
13/31 900 m2,952.756 ft
0 m0 ft
UNK /


METAR
Observation LELL 200330Z AUTO 30004KT 9999 NCD 01/M00 Q1014
Station Sabadell
Date/Time 20 November 2019 03:30:00
Wind direction 300°
Wind speed 04 kts
Lowest cloud amount no clouds detected
Temperature 1°C
Dew point
Humidity 93%
QNH 1014 hPa
Weather condition n/a

Sabadell Airport is located next to the city of Sabadell, 20 km10.799 nm
20,000 m
65,616.798 ft
north of Barcelona's city center.

Climatology

Dry-summer subtropical ”Mediterranean" climate (Köppen climate classification Csa) - characterized by hot, dry summers and mild winters. During the summer, subtropical high pressure cells dominate, making rainfall unlikely except for the occasional thunderstorm. In the winter, periodic storms bring rain (snow at higher elevations).

Maps

Terrain

Loading map...

Airport Layout

Loading map...


Accidents & Serious Incidents at or in vicinity of LELL

None on SKYbrary